Regional Weather Roundup
Issued by NWS

Home | Current Version | Previous Version | Text Only | Print | Product List | Glossary Off
Versions: 1 2 3 4 5 6 7 8 9 10 11 12 13 14 15 16 17 18 19 20 21 22 23 24 25 26 27 28 29 30 31 32 33 34 35 36 37 38 39 40 41 42 43 44 45 46 47 48 49 50

000
ASUS43 KBIS 062120
RWRND

NORTH DAKOTA REGIONAL WEATHER ROUNDUP
NATIONAL WEATHER SERVICE BISMARCK ND
400 PM CDT WED MAY 06 2015

NOTE: "FAIR" INDICATES FEW OR NO CLOUDS BELOW 12,000 FEET WITH NO
SIGNIFICANT WEATHER AND/OR OBSTRUCTIONS TO VISIBILITY.


NDZ001>003-009>011-017-062200-
NORTHWEST NORTH DAKOTA

CITY           SKY/WX    TMP DP  RH WIND       PRES   REMARKS
WILLISTON      LGT RAIN  56  52  86 N20G28    29.69S
MINOT          LGT RAIN  62  59  90 SE13      29.65F FOG
MINOT AFB      CLOUDY    64  62  96 SE15      29.64F
$$

NDZ018>021-031>035-040>046-062200-
SOUTHWEST NORTH DAKOTA

CITY           SKY/WX    TMP DP  RH WIND       PRES   REMARKS
BISMARCK       PTSUNNY   67  59  75 S20       29.65F
DICKINSON      LGT RAIN  61  56  83 N6        29.64F
GARRISON         N/A     62  60  93 CALM      29.65F
HETTINGER ARPT CLOUDY    64  54  69 CALM      29.65F
$$

NDZ004>008-012>016-024-026-027-054-062200-
NORTHEAST NORTH DAKOTA

CITY           SKY/WX    TMP DP  RH WIND       PRES   REMARKS
GRAND FORKS    LGT RAIN  63  61  94 SE15      29.79F FOG
GRND FRKS AFB  LGT RAIN  62  60  94 SE15      29.79F
DEVILS LAKE    CLOUDY    61  55  82 SE13      29.73F
$$

NDZ022-023-025-028>030-036>039-047>053-062200-
SOUTHEAST NORTH DAKOTA

CITY           SKY/WX    TMP DP  RH WIND       PRES   REMARKS
FARGO          LGT RAIN  65  60  84 E13       29.76F
JAMESTOWN      LGT RAIN  61  60  97 SE13      29.72F FOG
$$



USA.gov is the U.S. government's official web portal to all federal, state and local government web resources and services.